Time,TemperatureF,DewpointF,PressureIn,WindDirection,WindDirectionDegrees,WindSpeedMPH,WindSpeedGustMPH,Humidity,HourlyPrecipIn,Conditions,Clouds,dailyrainin,SoftwareType,DateUTC
2013-09-17 00:04:00,66.6,49.8,-100.00,North,-999,0.0,0.0,55,0.00,,,-99.99,FreeWX-Wi 1.02,2013-09-17 04:04:00,
2013-09-17 00:14:00,66.4,49.6,-100.00,North,-999,0.0,0.0,55,0.00,,,-99.99,FreeWX-Wi 1.02,2013-09-17 04:14:00,
2013-09-17 00:24:00,66.4,50.2,-100.00,North,-999,0.0,0.0,56,0.00,,,-99.99,FreeWX-Wi 1.02,2013-09-17 04:24:00,
2013-09-17 00:34:00,66.2,50.0,-100.00,North,-999,0.0,0.0,56,0.00,,,-99.99,FreeWX-Wi 1.02,2013-09-17 04:34:00,
2013-09-17 00:44:00,66.0,50.4,-100.00,North,-999,0.0,0.0,57,0.00,,,-99.99,FreeWX-Wi 1.02,2013-09-17 04:44:00,
2013-09-17 00:54:00,65.8,50.7,-100.00,North,-999,0.0,0.0,58,0.00,,,-99.99,FreeWX-Wi 1.02,2013-09-17 04:54:00,
2013-09-17 01:04:00,65.7,50.5,-100.00,North,-999,0.0,0.0,58,0.00,,,-99.99,FreeWX-Wi 1.02,2013-09-17 05:04:00,
2013-09-17 01:14:00,65.7,50.9,-100.00,North,-999,0.0,0.0,59,0.00,,,-99.99,FreeWX-Wi 1.02,2013-09-17 05:14:00,
2013-09-17 01:24:00,65.5,50.7,-100.00,North,-999,0.0,0.0,59,0.00,,,-99.99,FreeWX-Wi 1.02,2013-09-17 05:24:00,
2013-09-17 01:34:00,65.5,51.3,-100.00,North,-999,0.0,0.0,60,0.00,,,-99.99,FreeWX-Wi 1.02,2013-09-17 05:34:00,
2013-09-17 01:44:00,65.1,50.9,-100.00,North,-999,0.0,0.0,60,0.00,,,-99.99,FreeWX-Wi 1.02,2013-09-17 05:44:00,
2013-09-17 01:54:00,65.1,51.3,-100.00,North,-999,0.0,0.0,61,0.00,,,-99.99,FreeWX-Wi 1.02,2013-09-17 05:54:00,
2013-09-17 02:04:00,64.9,51.1,-100.00,North,-999,0.0,0.0,61,0.00,,,-99.99,FreeWX-Wi 1.02,2013-09-17 06:04:00,
2013-09-17 02:14:00,64.8,50.9,-100.00,North,-999,0.0,0.0,61,0.00,,,-99.99,FreeWX-Wi 1.02,2013-09-17 06:14:00,
2013-09-17 02:24:00,64.6,50.9,-100.00,North,-999,0.0,0.0,61,0.00,,,-99.99,FreeWX-Wi 1.02,2013-09-17 06:24:00,
2013-09-17 02:34:00,64.4,51.1,-100.00,North,-999,0.0,0.0,62,0.00,,,-99.99,FreeWX-Wi 1.02,2013-09-17 06:34:00,
2013-09-17 02:44:00,64.2,50.9,-100.00,North,-999,0.0,0.0,62,0.00,,,-99.99,FreeWX-Wi 1.02,2013-09-17 06:44:00,
2013-09-17 02:54:00,63.9,50.5,-100.00,North,-999,0.0,0.0,62,0.00,,,-99.99,FreeWX-Wi 1.02,2013-09-17 06:54:00,
2013-09-17 03:04:00,63.7,50.4,-100.00,North,-999,0.0,0.0,62,0.00,,,-99.99,FreeWX-Wi 1.02,2013-09-17 07:04:00,
2013-09-17 03:15:00,63.5,50.2,-100.00,North,-999,0.0,0.0,62,0.00,,,-99.99,FreeWX-Wi 1.02,2013-09-17 07:15:00,
2013-09-17 03:25:00,63.5,50.2,-100.00,North,-999,0.0,0.0,62,0.00,,,-99.99,FreeWX-Wi 1.02,2013-09-17 07:25:00,
2013-09-17 03:35:00,63.5,50.2,-100.00,North,-999,0.0,0.0,62,0.00,,,-99.99,FreeWX-Wi 1.02,2013-09-17 07:35:00,
2013-09-17 03:45:00,63.3,50.5,-100.00,North,-999,0.0,0.0,63,0.00,,,-99.99,FreeWX-Wi 1.02,2013-09-17 07:45:00,
2013-09-17 03:55:00,63.0,50.2,-100.00,North,-999,0.0,0.0,63,0.00,,,-99.99,FreeWX-Wi 1.02,2013-09-17 07:55:00,
2013-09-17 04:05:00,63.0,50.2,-100.00,North,-999,0.0,0.0,63,0.00,,,-99.99,FreeWX-Wi 1.02,2013-09-17 08:05:00,
2013-09-17 04:15:00,62.6,49.8,-100.00,North,-999,0.0,0.0,63,0.00,,,-99.99,FreeWX-Wi 1.02,2013-09-17 08:15:00,
2013-09-17 04:25:00,62.6,49.8,-100.00,North,-999,0.0,0.0,63,0.00,,,-99.99,FreeWX-Wi 1.02,2013-09-17 08:25:00,
2013-09-17 04:35:00,62.4,50.0,-100.00,North,-999,0.0,0.0,64,0.00,,,-99.99,FreeWX-Wi 1.02,2013-09-17 08:35:00,
2013-09-17 04:45:00,62.2,49.8,-100.00,North,-999,0.0,0.0,64,0.00,,,-99.99,FreeWX-Wi 1.02,2013-09-17 08:45:00,
2013-09-17 04:55:00,62.1,49.8,-100.00,North,-999,0.0,0.0,64,0.00,,,-99.99,FreeWX-Wi 1.02,2013-09-17 08:55:00,
2013-09-17 05:05:00,61.7,48.9,-100.00,North,-999,0.0,0.0,63,0.00,,,-99.99,FreeWX-Wi 1.02,2013-09-17 09:05:00,
2013-09-17 05:15:00,61.7,49.5,-100.00,North,-999,0.0,0.0,64,0.00,,,-99.99,FreeWX-Wi 1.02,2013-09-17 09:15:00,
2013-09-17 05:25:00,61.5,49.3,-100.00,North,-999,0.0,0.0,64,0.00,,,-99.99,FreeWX-Wi 1.02,2013-09-17 09:25:00,
2013-09-17 05:35:00,61.5,49.3,-100.00,North,-999,0.0,0.0,64,0.00,,,-99.99,FreeWX-Wi 1.02,2013-09-17 09:35:00,
2013-09-17 05:45:00,61.2,48.9,-100.00,North,-999,0.0,0.0,64,0.00,,,-99.99,FreeWX-Wi 1.02,2013-09-17 09:45:00,
2013-09-17 05:55:00,61.3,49.1,-100.00,North,-999,0.0,0.0,64,0.00,,,-99.99,FreeWX-Wi 1.02,2013-09-17 09:55:00,
2013-09-17 06:05:00,61.2,48.9,-100.00,North,-999,0.0,0.0,64,0.00,,,-99.99,FreeWX-Wi 1.02,2013-09-17 10:05:00,
2013-09-17 06:15:00,61.0,48.7,-100.00,North,-999,0.0,0.0,64,0.00,,,-99.99,FreeWX-Wi 1.02,2013-09-17 10:15:00,
2013-09-17 06:25:00,60.8,48.6,-100.00,North,-999,0.0,0.0,64,0.00,,,-99.99,FreeWX-Wi 1.02,2013-09-17 10:25:00,
2013-09-17 06:35:00,60.6,48.7,-100.00,North,-999,0.0,0.0,65,0.00,,,-99.99,FreeWX-Wi 1.02,2013-09-17 10:35:00,
2013-09-17 06:45:00,60.4,48.2,-100.00,North,-999,0.0,0.0,64,0.00,,,-99.99,FreeWX-Wi 1.02,2013-09-17 10:45:00,
2013-09-17 06:55:00,60.4,48.6,-100.00,North,-999,0.0,0.0,65,0.00,,,-99.99,FreeWX-Wi 1.02,2013-09-17 10:55:00,
2013-09-17 07:05:00,60.3,48.4,-100.00,North,-999,0.0,0.0,65,0.00,,,-99.99,FreeWX-Wi 1.02,2013-09-17 11:05:00,
2013-09-17 07:15:00,60.1,48.2,-100.00,North,-999,0.0,0.0,65,0.00,,,-99.99,FreeWX-Wi 1.02,2013-09-17 11:15:00,
2013-09-17 07:25:00,60.1,48.2,-100.00,North,-999,0.0,0.0,65,0.00,,,-99.99,FreeWX-Wi 1.02,2013-09-17 11:25:00,
2013-09-17 07:35:00,59.9,48.0,-100.00,North,-999,0.0,0.0,65,0.00,,,-99.99,FreeWX-Wi 1.02,2013-09-17 11:35:00,
2013-09-17 07:45:00,59.9,48.0,-100.00,North,-999,0.0,0.0,65,0.00,,,-99.99,FreeWX-Wi 1.02,2013-09-17 11:45:00,
2013-09-17 07:55:00,59.9,48.0,-100.00,North,-999,0.0,0.0,65,0.00,,,-99.99,FreeWX-Wi 1.02,2013-09-17 11:55:00,
2013-09-17 08:05:00,59.7,48.4,-100.00,North,-999,0.0,0.0,66,0.00,,,-99.99,FreeWX-Wi 1.02,2013-09-17 12:05:00,
2013-09-17 08:15:00,59.7,48.0,-100.00,North,-999,0.0,0.0,65,0.00,,,-99.99,FreeWX-Wi 1.02,2013-09-17 12:15:00,
2013-09-17 08:25:00,59.7,48.4,-100.00,North,-999,0.0,2.2,66,0.00,,,-99.99,FreeWX-Wi 1.02,2013-09-17 12:25:00,
2013-09-17 08:35:00,59.9,48.6,-100.00,North,-999,0.0,0.0,66,0.00,,,-99.99,FreeWX-Wi 1.02,2013-09-17 12:35:00,
2013-09-17 08:45:00,60.3,48.9,-100.00,North,-999,0.0,0.0,66,0.00,,,-99.99,FreeWX-Wi 1.02,2013-09-17 12:45:00,
2013-09-17 08:55:00,60.4,49.1,-100.00,North,-999,0.0,3.1,66,0.00,,,-99.99,FreeWX-Wi 1.02,2013-09-17 12:55:00,
2013-09-17 09:05:00,61.0,49.1,-100.00,North,-999,0.0,0.0,65,0.00,,,-99.99,FreeWX-Wi 1.02,2013-09-17 13:05:00,
2013-09-17 09:15:00,61.3,49.5,-100.00,North,-999,0.0,2.7,65,0.00,,,-99.99,FreeWX-Wi 1.02,2013-09-17 13:15:00,
2013-09-17 09:25:00,61.9,49.6,-100.00,North,-999,0.0,2.2,64,0.00,,,-99.99,FreeWX-Wi 1.02,2013-09-17 13:25:00,
2013-09-17 09:35:00,62.4,49.6,-100.00,North,-999,0.0,0.0,63,0.00,,,-99.99,FreeWX-Wi 1.02,2013-09-17 13:35:00,
2013-09-17 09:45:00,62.8,49.6,-100.00,North,-999,0.0,3.6,62,0.00,,,-99.99,FreeWX-Wi 1.02,2013-09-17 13:45:00,
2013-09-17 09:55:00,63.3,49.3,-100.00,North,-999,0.0,0.0,60,0.00,,,-99.99,FreeWX-Wi 1.02,2013-09-17 13:55:00,
2013-09-17 10:05:00,63.9,49.3,-100.00,North,-999,0.0,0.0,59,0.00,,,-99.99,FreeWX-Wi 1.02,2013-09-17 14:05:00,
2013-09-17 10:15:00,64.2,49.6,-100.00,North,-999,0.0,4.0,59,0.00,,,-99.99,FreeWX-Wi 1.02,2013-09-17 14:15:00,
2013-09-17 10:25:00,64.8,49.1,-100.00,North,-999,0.0,0.0,57,0.00,,,-99.99,FreeWX-Wi 1.02,2013-09-17 14:25:00,
2013-09-17 10:35:00,65.3,48.7,-100.00,North,-999,0.0,5.4,55,0.00,,,-99.99,FreeWX-Wi 1.02,2013-09-17 14:35:00,
2013-09-17 10:45:00,65.7,47.5,-100.00,North,-999,0.0,4.0,52,0.00,,,-99.99,FreeWX-Wi 1.02,2013-09-17 14:45:00,
2013-09-17 11:05:00,66.7,46.9,-100.00,North,-999,0.0,2.7,49,0.00,,,-99.99,FreeWX-Wi 1.02,2013-09-17 15:05:00,
2013-09-17 11:15:00,67.1,46.8,-100.00,North,-999,0.0,4.0,48,0.00,,,-99.99,FreeWX-Wi 1.02,2013-09-17 15:15:00,
2013-09-17 11:25:00,67.6,46.0,-100.00,North,-999,0.0,3.1,46,0.00,,,-99.99,FreeWX-Wi 1.02,2013-09-17 15:25:00,
2013-09-17 11:35:00,68.0,44.6,-100.00,North,-999,0.0,4.0,43,0.00,,,-99.99,FreeWX-Wi 1.02,2013-09-17 15:35:00,
2013-09-17 11:45:00,68.4,44.4,-100.00,North,-999,0.0,5.8,42,0.00,,,-99.99,FreeWX-Wi 1.02,2013-09-17 15:45:00,
2013-09-17 11:55:00,68.7,44.6,-100.00,North,-999,0.0,4.0,42,0.00,,,-99.99,FreeWX-Wi 1.02,2013-09-17 15:55:00,
2013-09-17 12:05:00,68.9,44.2,-100.00,North,-999,0.0,2.2,41,0.00,,,-99.99,FreeWX-Wi 1.02,2013-09-17 16:05:00,
2013-09-17 12:15:00,69.3,43.9,-100.00,North,-999,0.0,3.6,40,0.00,,,-99.99,FreeWX-Wi 1.02,2013-09-17 16:15:00,
2013-09-17 12:25:00,69.4,43.3,-100.00,North,-999,0.0,4.0,39,0.00,,,-99.99,FreeWX-Wi 1.02,2013-09-17 16:25:00,
2013-09-17 12:35:00,69.6,42.3,-100.00,North,-999,0.0,5.4,37,0.00,,,-99.99,FreeWX-Wi 1.02,2013-09-17 16:35:00,
2013-09-17 12:45:00,69.8,42.3,-100.00,North,-999,0.0,4.0,37,0.00,,,-99.99,FreeWX-Wi 1.02,2013-09-17 16:45:00,
2013-09-17 12:55:00,70.0,41.7,-100.00,North,-999,0.0,4.9,36,0.00,,,-99.99,FreeWX-Wi 1.02,2013-09-17 16:55:00,
2013-09-17 13:06:00,70.0,41.0,-100.00,North,-999,0.0,2.7,35,0.00,,,-99.99,FreeWX-Wi 1.02,2013-09-17 17:06:00,
2013-09-17 13:16:00,70.0,40.3,-100.00,North,-999,0.0,7.6,34,0.00,,,-99.99,FreeWX-Wi 1.02,2013-09-17 17:16:00,
2013-09-17 13:26:00,70.2,40.5,-100.00,North,-999,0.0,0.0,34,0.00,,,-99.99,FreeWX-Wi 1.02,2013-09-17 17:26:00,
2013-09-17 13:36:00,70.5,40.8,-100.00,North,-999,0.0,2.7,34,0.00,,,-99.99,FreeWX-Wi 1.02,2013-09-17 17:36:00,
2013-09-17 13:46:00,70.5,40.8,-100.00,North,-999,0.0,5.4,34,0.00,,,-99.99,FreeWX-Wi 1.02,2013-09-17 17:46:00,
2013-09-17 13:56:00,70.5,40.1,-100.00,North,-999,0.0,4.0,33,0.00,,,-99.99,FreeWX-Wi 1.02,2013-09-17 17:56:00,
2013-09-17 14:06:00,70.3,39.9,-100.00,North,-999,0.0,5.4,33,0.00,,,-99.99,FreeWX-Wi 1.02,2013-09-17 18:06:00,
2013-09-17 14:16:00,70.3,39.9,-100.00,North,-999,0.0,2.2,33,0.00,,,-99.99,FreeWX-Wi 1.02,2013-09-17 18:16:00,
2013-09-17 14:26:00,70.5,40.1,-100.00,North,-999,0.0,4.5,33,0.00,,,-99.99,FreeWX-Wi 1.02,2013-09-17 18:26:00,
2013-09-17 14:36:00,70.5,40.1,-100.00,North,-999,0.0,3.1,33,0.00,,,-99.99,FreeWX-Wi 1.02,2013-09-17 18:36:00,
2013-09-17 14:46:00,70.2,40.5,-100.00,North,-999,0.0,4.0,34,0.00,,,-99.99,FreeWX-Wi 1.02,2013-09-17 18:46:00,
2013-09-17 14:56:00,70.2,40.5,-100.00,North,-999,0.0,4.0,34,0.00,,,-99.99,FreeWX-Wi 1.02,2013-09-17 18:56:00,
2013-09-17 15:06:00,70.0,40.3,-100.00,North,-999,0.0,3.6,34,0.00,,,-99.99,FreeWX-Wi 1.02,2013-09-17 19:06:00,
2013-09-17 15:16:00,70.0,40.3,-100.00,North,-999,0.0,0.0,34,0.00,,,-99.99,FreeWX-Wi 1.02,2013-09-17 19:16:00,
2013-09-17 15:26:00,69.8,40.1,-100.00,North,-999,0.0,2.2,34,0.00,,,-99.99,FreeWX-Wi 1.02,2013-09-17 19:26:00,
2013-09-17 15:36:00,70.0,40.3,-100.00,North,-999,0.0,3.6,34,0.00,,,-99.99,FreeWX-Wi 1.02,2013-09-17 19:36:00,
2013-09-17 15:46:00,69.8,40.1,-100.00,North,-999,0.0,0.0,34,0.00,,,-99.99,FreeWX-Wi 1.02,2013-09-17 19:46:00,
2013-09-17 15:56:00,69.6,40.8,-100.00,North,-999,0.0,3.1,35,0.00,,,-99.99,FreeWX-Wi 1.02,2013-09-17 19:56:00,
2013-09-17 16:06:00,69.6,40.8,-100.00,North,-999,0.0,0.0,35,0.00,,,-99.99,FreeWX-Wi 1.02,2013-09-17 20:06:00,
2013-09-17 16:16:00,69.6,40.8,-100.00,North,-999,0.0,3.6,35,0.00,,,-99.99,FreeWX-Wi 1.02,2013-09-17 20:16:00,
2013-09-17 16:26:00,69.4,40.6,-100.00,North,-999,0.0,5.4,35,0.00,,,-99.99,FreeWX-Wi 1.02,2013-09-17 20:26:00,
2013-09-17 16:36:00,69.3,40.5,-100.00,North,-999,0.0,4.0,35,0.00,,,-99.99,FreeWX-Wi 1.02,2013-09-17 20:36:00,
2013-09-17 16:46:00,69.3,40.5,-100.00,North,-999,0.0,3.6,35,0.00,,,-99.99,FreeWX-Wi 1.02,2013-09-17 20:46:00,
2013-09-17 16:56:00,69.1,40.3,-100.00,North,-999,0.0,0.0,35,0.00,,,-99.99,FreeWX-Wi 1.02,2013-09-17 20:56:00,
2013-09-17 17:06:00,69.3,40.5,-100.00,North,-999,0.0,2.7,35,0.00,,,-99.99,FreeWX-Wi 1.02,2013-09-17 21:06:00,
2013-09-17 17:16:00,69.3,40.5,-100.00,North,-999,0.0,4.0,35,0.00,,,-99.99,FreeWX-Wi 1.02,2013-09-17 21:16:00,
2013-09-17 17:26:00,68.7,40.6,-100.00,North,-999,0.0,0.0,36,0.00,,,-99.99,FreeWX-Wi 1.02,2013-09-17 21:26:00,
2013-09-17 17:36:00,68.2,40.3,-100.00,North,-999,0.0,0.0,36,0.00,,,-99.99,FreeWX-Wi 1.02,2013-09-17 21:36:00,
2013-09-17 17:46:00,68.0,40.8,-100.00,North,-999,0.0,0.0,37,0.00,,,-99.99,FreeWX-Wi 1.02,2013-09-17 21:46:00,
2013-09-17 17:56:00,68.2,41.5,-100.00,North,-999,0.0,5.8,38,0.00,,,-99.99,FreeWX-Wi 1.02,2013-09-17 21:56:00,
2013-09-17 18:06:00,68.0,41.4,-100.00,North,-999,0.0,0.0,38,0.00,,,-99.99,FreeWX-Wi 1.02,2013-09-17 22:06:00,
2013-09-17 18:16:00,67.8,41.4,-100.00,North,-999,0.0,0.0,38,0.00,,,-99.99,FreeWX-Wi 1.02,2013-09-17 22:16:00,
2013-09-17 18:26:00,67.5,41.5,-100.00,North,-999,0.0,0.0,39,0.00,,,-99.99,FreeWX-Wi 1.02,2013-09-17 22:26:00,
2013-09-17 18:36:00,67.3,42.1,-100.00,North,-999,0.0,0.0,40,0.00,,,-99.99,FreeWX-Wi 1.02,2013-09-17 22:36:00,
2013-09-17 18:46:00,67.1,41.9,-100.00,North,-999,0.0,0.0,40,0.00,,,-99.99,FreeWX-Wi 1.02,2013-09-17 22:46:00,
2013-09-17 18:56:00,66.7,42.3,-100.00,North,-999,0.0,0.0,41,0.00,,,-99.99,FreeWX-Wi 1.02,2013-09-17 22:56:00,
2013-09-17 19:06:00,66.6,42.8,-100.00,North,-999,0.0,0.0,42,0.00,,,-99.99,FreeWX-Wi 1.02,2013-09-17 23:06:00,
2013-09-17 19:16:00,66.2,42.4,-100.00,North,-999,0.0,0.0,42,0.00,,,-99.99,FreeWX-Wi 1.02,2013-09-17 23:16:00,
2013-09-17 19:26:00,66.0,42.8,-100.00,North,-999,0.0,0.0,43,0.00,,,-99.99,FreeWX-Wi 1.02,2013-09-17 23:26:00,
2013-09-17 19:36:00,65.7,42.6,-100.00,North,-999,0.0,0.0,43,0.00,,,-99.99,FreeWX-Wi 1.02,2013-09-17 23:36:00,
2013-09-17 19:46:00,65.5,43.0,-100.00,North,-999,0.0,0.0,44,0.00,,,-99.99,FreeWX-Wi 1.02,2013-09-17 23:46:00,
2013-09-17 19:56:00,65.1,42.6,-100.00,North,-999,0.0,0.0,44,0.00,,,-99.99,FreeWX-Wi 1.02,2013-09-17 23:56:00,
2013-09-17 20:06:00,64.6,42.3,-100.00,North,-999,0.0,0.0,44,0.00,,,-99.99,FreeWX-Wi 1.02,2013-09-18 00:06:00,
2013-09-17 20:16:00,64.2,41.9,-100.00,North,-999,0.0,0.0,44,0.00,,,-99.99,FreeWX-Wi 1.02,2013-09-18 00:16:00,
2013-09-17 20:26:00,64.0,42.3,-100.00,North,-999,0.0,0.0,45,0.00,,,-99.99,FreeWX-Wi 1.02,2013-09-18 00:26:00,
2013-09-17 20:36:00,63.7,41.9,-100.00,North,-999,0.0,0.0,45,0.00,,,-99.99,FreeWX-Wi 1.02,2013-09-18 00:36:00,
2013-09-17 20:46:00,63.3,41.5,-100.00,North,-999,0.0,0.0,45,0.00,,,-99.99,FreeWX-Wi 1.02,2013-09-18 00:46:00,
2013-09-17 20:56:00,63.1,41.4,-100.00,North,-999,0.0,0.0,45,0.00,,,-99.99,FreeWX-Wi 1.02,2013-09-18 00:56:00,
2013-09-17 21:06:00,62.8,41.7,-100.00,North,-999,0.0,0.0,46,0.00,,,-99.99,FreeWX-Wi 1.02,2013-09-18 01:06:00,
2013-09-17 21:16:00,62.6,41.5,-100.00,North,-999,0.0,0.0,46,0.00,,,-99.99,FreeWX-Wi 1.02,2013-09-18 01:16:00,
2013-09-17 21:26:00,62.4,41.9,-100.00,North,-999,0.0,0.0,47,0.00,,,-99.99,FreeWX-Wi 1.02,2013-09-18 01:26:00,
2013-09-17 21:36:00,62.2,41.7,-100.00,North,-999,0.0,0.0,47,0.00,,,-99.99,FreeWX-Wi 1.02,2013-09-18 01:36:00,
2013-09-17 21:46:00,61.9,41.4,-100.00,North,-999,0.0,3.1,47,0.00,,,-99.99,FreeWX-Wi 1.02,2013-09-18 01:46:00,
2013-09-17 21:56:00,61.7,41.2,-100.00,North,-999,0.0,0.0,47,0.00,,,-99.99,FreeWX-Wi 1.02,2013-09-18 01:56:00,
2013-09-17 22:06:00,61.7,41.7,-100.00,North,-999,0.0,0.0,48,0.00,,,-99.99,FreeWX-Wi 1.02,2013-09-18 02:06:00,
2013-09-17 22:17:00,61.3,41.5,-100.00,North,-999,0.0,0.0,48,0.00,,,-99.99,FreeWX-Wi 1.02,2013-09-18 02:17:00,
2013-09-17 22:27:00,61.0,41.2,-100.00,North,-999,0.0,0.0,48,0.00,,,-99.99,FreeWX-Wi 1.02,2013-09-18 02:27:00,
2013-09-17 22:37:00,61.0,41.2,-100.00,North,-999,0.0,0.0,48,0.00,,,-99.99,FreeWX-Wi 1.02,2013-09-18 02:37:00,
2013-09-17 22:47:00,60.4,40.6,-100.00,North,-999,0.0,0.0,48,0.00,,,-99.99,FreeWX-Wi 1.02,2013-09-18 02:47:00,
2013-09-17 22:57:00,60.3,40.5,-100.00,North,-999,0.0,2.2,48,0.00,,,-99.99,FreeWX-Wi 1.02,2013-09-18 02:57:00,
2013-09-17 23:07:00,60.1,40.3,-100.00,North,-999,0.0,3.6,48,0.00,,,-99.99,FreeWX-Wi 1.02,2013-09-18 03:07:00,
2013-09-17 23:17:00,60.1,40.8,-100.00,North,-999,0.0,2.7,49,0.00,,,-99.99,FreeWX-Wi 1.02,2013-09-18 03:17:00,
2013-09-17 23:27:00,60.1,40.8,-100.00,North,-999,0.0,0.0,49,0.00,,,-99.99,FreeWX-Wi 1.02,2013-09-18 03:27:00,
2013-09-17 23:37:00,59.9,40.6,-100.00,North,-999,0.0,0.0,49,0.00,,,-99.99,FreeWX-Wi 1.02,2013-09-18 03:37:00,
2013-09-17 23:47:00,59.5,40.3,-100.00,North,-999,0.0,0.0,49,0.00,,,-99.99,FreeWX-Wi 1.02,2013-09-18 03:47:00,
2013-09-17 23:57:00,59.4,40.3,-100.00,North,-999,0.0,0.0,49,0.00,,,-99.99,FreeWX-Wi 1.02,2013-09-18 03:57:00,